This is the latest recevied weather packets stored in our database for station/object EA1JVZ-1. If no packets are shown the sender has not sent any weather packets the latest 10 day(s).
| Time | Temp. | Humidity | Pressure | Rain* | Wind** | Luminosity | Snow |
|---|---|---|---|---|---|---|---|
| 1777547165 | 18.89° C | 47% | 1027.2 hPa | - | - | - | - |
| 1777546264 | 17.78° C | 48% | 1027.1 hPa | - | - | - | - |
| 1777545366 | 17.78° C | 48% | 1027.1 hPa | - | - | - | - |
| 1777542664 | 17.22° C | 45% | 1026.9 hPa | - | - | - | - |
| 1777541764 | 15.56° C | 47% | 1027.1 hPa | - | - | - | - |
| 1777539963 | 13.33° C | 48% | 1026.8 hPa | - | - | - | - |
| 1777539063 | 13.33° C | 48% | 1026.9 hPa | - | - | - | - |
| 1777538162 | 12.78° C | 48% | 1026.8 hPa | - | - | - | - |
| 1777537262 | 12.22° C | 48% | 1026.7 hPa | - | - | - | - |
| 1777536366 | 11.67° C | 48% | 1026.7 hPa | - | - | - | - |
| 1777535462 | 10.56° C | 48% | 1026.7 hPa | - | - | - | - |
| 1777533662 | 8.89° C | 48% | 1026.5 hPa | - | - | - | - |
| 1777532762 | 8.33° C | 48% | 1026.3 hPa | - | - | - | - |
| 1777531864 | 7.78° C | 48% | 1026.3 hPa | - | - | - | - |
| 1777530961 | 7.78° C | 49% | 1026.1 hPa | - | - | - | - |
| 1777530061 | 7.22° C | 49% | 1025.9 hPa | - | - | - | - |
| 1777529161 | 7.22° C | 49% | 1025.8 hPa | - | - | - | - |
| 1777528261 | 7.22° C | 49% | 1025.6 hPa | - | - | - | - |
| 1777527361 | 7.22° C | 49% | 1025.5 hPa | - | - | - | - |
| 1777526466 | 7.22° C | 50% | 1025.4 hPa | - | - | - | - |
| 1777524662 | 7.22° C | 50% | 1025.2 hPa | - | - | - | - |
| 1777523761 | 7.22° C | 50% | 1025 hPa | - | - | - | - |
| 1777522860 | 7.78° C | 49% | 1025 hPa | - | - | - | - |
| 1777521959 | 7.78° C | 50% | 1025 hPa | - | - | - | - |
| 1777521059 | 7.78° C | 50% | 1025 hPa | - | - | - | - |
* Rain since midnight (hover to see other rain measurements)
** Current wind speed in m/s (hover to see current wind gust speed)